Theta_e
307 309 305 301 300 308 310 311 313 313 316 316 320 321 323 323 326 325 326 327 325 325 327 328 329 328 328 326 323 324 330 332 330 330 332 331 329 331 332 331 331 332 335 337 340
306 307 308 303 299 302 310 311 312 313 313 316 316 319 322 320 320 320 323 325 325 322 326 328 329 328 328 327 322 324 330 331 329 328 331 330 331 331 331 331 330 331 337 339 339
304 306 307 307 303 299 304 310 311 313 312 315 315 316 320 319 318 319 322 324 323 321 324 326 326 328 326 325 323 325 328 329 328 327 329 330 330 332 331 328 330 332 338 339 339
302 302 305 307 307 303 299 307 310 312 312 315 315 316 317 318 320 319 321 323 325 321 321 322 324 326 323 325 321 323 326 326 327 326 328 329 331 331 331 330 329 331 336 339 339
304 301 300 305 307 306 302 303 309 312 313 315 315 316 318 316 318 319 318 322 323 322 320 320 324 324 325 321 320 323 325 326 325 325 328 330 331 331 331 331 331 333 337 338 338
304 303 300 300 306 307 305 300 309 311 313 315 312 315 317 317 316 317 317 319 321 321 321 320 321 323 321 320 320 319 321 326 325 325 327 329 331 330 330 330 332 333 337 337 337
304 304 302 299 304 306 305 300 308 311 313 315 313 312 315 317 315 316 318 320 317 320 320 321 320 321 320 321 319 319 320 325 326 325 326 328 329 329 330 331 332 333 334 336 336
303 304 304 299 303 305 306 301 308 311 312 315 314 310 313 315 315 317 317 316 316 315 318 320 319 321 320 320 320 321 320 327 325 325 323 326 332 328 329 331 333 334 333 334 334
301 302 303 299 301 305 306 301 307 310 312 315 314 311 310 309 316 316 316 314 314 316 318 319 321 319 319 321 323 322 325 322 322 320 324 326 332 327 328 329 331 333 333 333 333
300 301 302 298 302 305 306 301 307 310 312 314 313 311 309 309 313 316 316 316 315 317 316 320 319 319 320 322 324 325 325 322 321 314 318 326 325 323 324 327 329 331 333 333 332
299 300 302 299 303 306 305 302 308 311 310 311 311 310 309 308 312 314 317 319 318 318 320 319 321 321 321 321 321 323 323 324 322 315 315 318 321 323 322 322 325 328 331 332 332
303 300 301 305 305 306 303 307 309 310 310 311 311 311 310 309 310 314 317 319 319 319 319 319 320 319 320 321 321 321 324 324 322 316 317 316 316 315 319 321 323 325 326 327 328
304 301 306 306 306 303 303 307 308 310 309 309 310 311 311 309 309 311 317 317 318 319 320 322 319 319 320 321 321 321 321 322 321 315 315 315 321 319 316 317 319 320 320 322 322
303 305 306 306 304 304 306 307 307 309 309 307 310 311 310 311 310 311 313 314 316 319 319 320 317 319 322 320 320 323 320 320 314 317 321 314 319 320 319 316 315 317 317 317 317
302 306 305 303 306 305 307 306 308 309 313 310 310 310 309 311 311 311 314 312 313 316 316 316 314 317 322 322 319 320 315 318 317 318 317 316 315 316 316 317 315 315 315 315 315
304 305 302 301 304 306 306 307 307 311 311 308 309 312 310 311 311 313 313 310 313 314 312 311 312 313 315 315 317 315 316 317 317 317 318 316 316 316 317 315 316 313 310 310 310
304 304 303 303 305 305 306 306 308 310 306 309 309 310 311 312 312 313 311 312 312 311 312 311 312 312 313 315 314 316 316 318 319 316 317 311 316 316 315 313 311 309 309 309 310
304 302 302 302 304 306 306 305 306 307 306 305 306 309 313 312 312 312 310 310 310 309 309 311 311 312 312 313 315 315 316 318 318 317 313 309 311 311 311 310 311 310 310 309 310
303 302 302 303 304 305 305 307 306 305 303 305 307 310 308 308 312 312 311 311 310 310 309 309 311 310 311 312 313 315 314 309 308 306 310 309 309 309 309 309 310 311 310 311 311
303 302 302 303 305 304 303 304 304 302 301 304 308 308 310 309 312 312 312 306 311 311 311 311 313 311 311 312 312 312 308 306 308 308 306 305 307 306 309 309 308 309 310 310 311
304 303 301 303 303 302 304 302 303 302 302 306 305 306 307 308 308 309 308 305 306 311 311 312 313 313 311 312 312 313 310 310 310 309 310 309 307 309 308 308 308 309 309 309 310
302 301 299 302 301 299 302 300 301 302 303 303 304 304 306 306 306 307 308 306 303 308 313 310 312 314 312 311 311 310 309 310 310 311 307 308 307 308 307 308 309 309 310 310 310
301 303 299 302 302 301 298 300 301 302 303 303 304 304 303 305 306 306 306 302 304 308 310 311 312 314 314 312 311 313 310 309 309 311 311 307 308 307 309 309 309 309 311 311 311
304 301 298 299 300 300 300 300 301 301 301 303 303 304 305 306 305 306 306 304 303 304 306 308 309 311 312 311 312 313 313 311 311 310 310 309 309 310 309 310 312 312 311 310 310
302 296 297 301 300 299 300 300 300 299 301 301 302 302 303 304 305 305 303 303 303 303 304 307 309 308 308 308 310 311 312 312 312 312 311 312 311 311 311 310 311 309 308 309 308
301 298 297 295 298 301 300 298 299 298 300 300 300 301 300 300 303 302 302 302 303 304 305 305 307 307 306 307 309 310 310 311 312 313 312 312 312 311 312 306 305 305 305 306 305
298 299 301 298 299 302 299 298 298 298 298 298 298 299 299 298 299 299 300 300 301 301 302 304 304 302 302 304 306 300 305 308 310 311 311 312 312 309 304 302 302 303 305 302 302
Wind_Speed
9 9 10 10 12 13 12 10 8 7 9 12 23 16 3 3 5 8 9 11 9 12 17 27 31 20 19 10 5 4 3 6 14 7 6 19 9 6 7 14 7 4 7 21 26
8 11 10 11 10 15 14 12 11 8 9 12 14 25 21 20 17 19 5 7 12 7 11 19 27 21 6 11 4 4 3 7 8 8 8 20 17 12 6 13 9 7 17 26 27
11 9 11 12 12 11 16 14 12 11 9 12 12 13 23 26 17 12 8 7 12 9 13 10 14 20 4 14 6 4 3 3 8 10 6 17 14 14 9 6 13 16 21 25 24
14 12 10 12 13 12 13 15 12 11 9 11 11 10 15 24 4 5 9 10 10 8 9 9 10 14 2 5 4 5 1 5 4 7 4 15 14 11 9 4 13 18 23 25 24
15 15 13 12 13 14 12 15 13 11 10 9 8 9 14 17 16 17 17 8 11 7 7 4 10 13 6 4 15 5 2 0 3 2 4 15 9 7 8 10 12 19 25 24 22
16 16 14 14 13 15 14 14 15 12 12 11 8 13 10 17 24 22 15 4 10 8 6 4 6 8 7 0 4 12 16 2 3 2 3 7 8 2 14 12 13 16 23 21 20
14 15 14 13 15 14 14 14 14 14 13 15 11 10 10 14 18 20 11 6 6 5 5 8 9 5 7 2 8 13 7 5 6 9 2 5 2 5 15 14 14 16 19 19 19
16 14 14 12 14 14 13 13 13 12 13 16 13 10 5 11 14 24 15 9 3 6 3 6 11 6 5 4 9 7 6 5 5 7 1 4 5 9 13 15 14 15 17 19 18
18 15 15 13 12 13 13 12 13 12 12 15 17 9 4 11 20 24 25 16 13 9 1 6 6 4 6 4 4 2 3 5 4 9 1 5 1 12 12 11 13 16 18 18 17
15 15 14 12 11 12 13 10 10 11 10 15 9 6 10 11 23 21 16 18 10 15 5 6 3 2 2 3 6 7 4 3 6 7 6 5 5 6 4 5 10 14 15 17 17
11 13 13 10 10 12 11 9 5 5 14 3 6 5 9 10 20 18 19 17 14 10 6 5 3 5 9 7 7 5 2 2 2 9 6 5 5 2 9 6 6 9 16 17 16
8 10 9 9 10 12 11 7 8 3 3 16 9 8 6 14 11 19 21 13 11 7 8 3 5 7 12 10 7 7 6 4 6 6 6 10 9 9 6 9 10 10 9 10 11
11 6 5 9 11 10 11 10 10 3 4 4 9 9 10 9 9 23 23 9 11 11 12 6 2 14 8 12 13 9 9 5 1 6 7 8 8 5 8 13 10 14 14 12 15
7 7 9 9 5 6 7 12 8 5 0 3 7 10 14 6 4 19 18 8 1 12 13 6 4 12 12 15 15 11 13 8 6 6 2 5 4 7 6 12 11 17 15 21 23
8 8 10 10 3 7 5 8 9 7 3 9 6 10 17 5 18 10 16 7 5 5 3 5 6 7 13 17 16 3 10 12 6 4 6 5 1 5 8 5 6 16 18 17 15
10 9 8 6 4 5 3 5 6 4 5 1 2 7 9 7 3 16 12 10 11 5 8 2 3 5 3 5 10 9 10 12 7 3 3 8 6 4 5 4 5 4 5 3 2
13 12 9 7 5 6 10 5 0 3 2 2 1 3 8 4 6 14 15 12 6 7 3 3 3 2 3 8 10 13 10 3 2 1 4 1 6 9 9 6 3 5 8 6 4
13 9 5 4 10 10 7 3 2 1 3 1 2 5 5 4 4 13 13 11 6 6 10 7 3 8 4 1 7 7 9 3 4 4 4 4 5 4 3 3 4 6 5 6 5
13 9 8 6 6 7 3 1 3 4 4 4 0 2 2 2 3 6 11 12 7 6 5 10 4 3 8 2 6 4 4 3 5 1 3 4 5 6 7 4 2 6 5 3 6
9 8 9 4 5 3 3 4 3 3 4 2 2 6 2 1 4 5 8 2 4 3 5 6 5 6 5 1 3 3 6 4 2 3 3 3 3 4 1 1 4 10 16 12 8
6 6 6 4 5 7 3 3 1 3 3 6 5 3 5 2 4 3 3 3 3 3 7 3 5 4 5 6 9 3 4 2 5 3 4 1 1 3 6 8 9 14 12 10 8
3 3 6 5 6 2 2 1 3 6 10 6 5 6 6 4 5 3 4 4 4 3 4 1 4 6 4 3 4 6 5 4 3 4 3 3 3 4 7 13 13 9 12 13 11
3 3 8 4 3 3 1 2 7 5 5 2 4 5 2 4 3 4 5 5 7 3 2 2 1 6 3 3 2 2 5 6 2 2 3 4 2 3 4 10 9 8 6 8 12
2 2 8 9 6 4 2 3 3 7 8 6 3 3 3 6 7 4 4 6 9 7 10 4 2 3 3 4 2 5 8 7 5 3 2 5 4 4 4 7 14 16 18 19 19
3 2 3 3 5 4 2 2 2 4 4 10 5 5 4 3 3 4 4 2 9 7 4 2 3 4 6 6 3 4 3 7 9 6 5 2 4 3 5 6 11 15 15 15 14
2 6 6 4 2 4 4 3 2 1 5 4 7 13 10 8 7 3 2 5 5 5 3 5 2 3 3 4 5 3 6 5 3 8 9 7 13 6 14 17 18 16 17 12 14
6 13 6 2 1 1 2 3 3 5 9 9 5 7 10 8 12 10 11 10 8 4 2 3 2 2 1 5 2 4 10 10 4 3 5 7 9 4 7 14 14 14 9 12 15
Wind_Direction
277 280 282 274 256 253 258 253 260 299 301 271 241 242 32 30 191 185 188 202 195 216 220 231 234 256 254 287 246 284 275 230 247 264 127 146 158 165 87 127 130 98 70 161 160
293 273 275 279 271 248 252 248 249 259 303 289 271 245 239 262 300 329 234 183 172 160 207 216 229 239 270 294 224 220 222 258 277 301 149 160 154 164 144 143 127 113 113 146 156
286 285 270 267 270 269 246 251 250 252 270 290 275 260 230 260 306 285 272 212 166 130 121 172 193 200 255 290 238 228 269 347 9 355 43 161 159 159 173 170 171 162 146 155 162
287 281 279 264 267 267 257 244 248 244 262 279 264 259 224 240 252 307 293 203 175 131 122 136 153 138 164 276 333 267 296 323 340 314 357 164 155 169 200 155 186 171 165 164 170
286 283 271 269 260 265 270 242 239 233 246 250 251 208 161 214 236 268 307 208 176 135 109 115 144 165 171 325 336 308 37 274 293 295 318 155 153 167 143 126 114 153 162 171 174
276 281 282 262 261 255 259 245 235 228 229 232 228 196 205 216 218 245 283 143 169 143 150 147 172 162 141 359 1 315 304 162 173 107 56 145 127 195 136 141 134 151 166 173 178
271 276 286 265 252 254 251 245 231 226 233 225 211 205 238 220 205 223 210 79 73 132 173 175 101 158 129 143 357 319 298 186 154 173 167 188 99 232 148 138 153 161 169 176 184
258 272 284 273 253 252 244 241 226 225 230 220 203 174 266 227 202 194 224 234 356 13 219 232 154 115 104 113 32 340 300 175 143 192 226 228 195 206 152 154 162 171 174 183 189
251 258 277 276 258 245 234 237 223 226 233 222 186 170 226 201 197 194 210 237 258 286 252 228 173 125 111 86 74 52 289 136 113 12 98 215 338 106 145 168 189 178 182 189 193
251 250 270 266 253 237 222 229 219 224 219 208 183 168 220 208 197 185 196 209 218 199 220 161 142 118 111 142 179 180 192 320 60 355 320 189 135 109 125 190 224 190 191 189 200
253 252 266 252 240 219 210 203 204 201 215 225 178 190 142 148 164 170 171 166 157 171 155 168 197 199 168 150 132 129 127 324 37 14 340 334 310 157 168 181 251 248 198 202 208
258 262 258 247 210 196 196 197 219 199 195 218 267 219 167 148 164 162 172 166 173 176 137 123 237 195 176 168 136 168 177 222 309 16 3 3 328 310 226 185 200 235 239 231 229
237 247 219 190 182 201 209 221 240 202 37 233 220 200 167 168 184 175 179 163 162 167 187 152 158 221 242 164 170 219 176 153 302 351 353 334 291 274 265 255 209 229 242 240 237
216 206 178 171 178 189 217 226 229 191 134 208 203 205 158 178 114 175 177 126 83 180 189 222 321 207 200 184 183 184 213 148 155 154 202 152 270 267 238 220 200 214 230 244 249
179 180 168 152 166 176 197 218 188 159 259 143 163 161 156 186 138 177 164 153 194 126 137 148 158 211 189 193 179 170 124 165 181 46 7 198 318 255 262 279 186 201 230 253 263
165 176 162 173 158 167 178 153 168 168 244 183 114 155 147 213 142 145 151 145 157 79 77 64 345 353 36 30 124 116 82 65 65 87 223 215 202 253 217 231 225 170 152 156 304
169 161 162 165 165 155 149 117 204 227 335 59 1 203 142 136 131 165 163 164 154 141 150 172 104 43 241 91 131 129 135 108 126 169 226 338 216 244 298 330 348 90 97 80 32
158 153 153 192 151 146 166 73 252 334 39 17 339 102 176 130 140 164 171 181 206 193 148 176 181 176 213 203 180 173 162 152 178 184 182 346 237 261 279 4 44 67 19 358 40
156 153 114 112 150 160 36 99 29 11 325 344 4 119 96 96 102 149 175 182 196 213 144 180 174 142 148 22 145 177 209 93 91 22 69 204 259 277 234 254 146 85 73 51 98
133 120 71 93 129 122 82 89 20 20 327 277 43 9 74 123 130 162 160 357 190 208 19 139 120 162 121 159 180 176 132 68 358 135 228 244 233 237 306 155 127 83 72 65 68
118 88 49 105 132 54 78 68 52 4 91 32 29 73 50 39 37 82 60 50 339 221 274 22 121 158 129 222 170 181 166 192 138 143 172 137 244 338 72 80 88 76 59 42 52
63 78 31 128 54 32 63 335 346 20 29 47 52 42 29 32 33 86 103 62 304 263 169 356 108 145 159 2 18 218 163 175 133 225 241 125 273 64 83 86 90 68 59 46 31
74 86 18 123 106 86 338 360 53 25 21 100 58 8 116 23 95 41 80 18 7 63 92 265 60 120 116 315 59 177 220 207 234 93 204 125 243 230 165 127 137 123 61 19 358
103 52 42 60 69 107 125 6 76 73 46 55 84 126 35 44 45 63 60 45 55 55 26 23 62 65 129 99 116 165 199 216 214 134 192 199 149 193 146 41 4 358 352 347 350
79 89 97 76 35 84 71 110 19 26 59 14 37 52 63 86 79 73 61 46 54 24 45 67 98 83 79 85 19 76 184 215 216 226 192 128 263 285 359 349 346 28 25 10 16
104 130 93 98 341 98 32 2 74 12 9 28 87 67 62 62 44 82 329 25 43 46 45 339 108 99 81 119 140 171 238 268 255 240 265 284 280 285 306 47 27 8 3 19 15
115 123 113 10 261 55 62 159 94 134 37 42 43 96 78 48 54 56 53 61 69 50 56 32 93 45 161 356 44 336 210 198 190 223 205 240 246 31 44 34 7 341 39 33 359